"Period start","avg(HW err(1)/warn(2) (#))","avg(Visibility (m))","avg(Weather code (#))","avg(Precip intensity (mm/h))","min(HW err(1)/warn(2) (#))","max(HW err(1)/warn(2) (#))","std(HW err(1)/warn(2) (#))","med(HW err(1)/warn(2) (#))","min(Visibility (m))","max(Visibility (m))","std(Visibility (m))","med(Visibility (m))","min(Weather code (#))","max(Weather code (#))","std(Weather code (#))","med(Weather code (#))","min(Precip intensity (mm/h))","max(Precip intensity (mm/h))","std(Precip intensity (mm/h))","med(Precip intensity (mm/h))"
2014-06-02 00:00:00,2,3839,57,0.45,2,2,0,2,1813,7620,1936,3240,0,71,28,71,0.00,1.25,0.38,0.38
2014-06-02 00:10:00,2,7363,72,0.14,2,2,0,2,1967,26560,7003,5086,71,77,2,71,0.00,0.50,0.18,0.05
2014-06-02 00:20:00,2,3854,75,0.07,2,2,0,2,2427,5172,723,3796,71,77,3,77,0.00,0.45,0.13,0.05
2014-06-02 00:30:00,2,6998,34,0.07,2,2,0,2,2008,14687,4070,6248,10,71,30,10,0.00,0.55,0.16,0.00
2014-06-02 00:40:00,2,17888,6,0.00,2,2,0,2,7825,29642,7537,17190,0,10,5,10,0.00,0.00,0.00,0.00
2014-06-02 00:50:00,2,13755,36,0.01,2,2,0,2,2341,35395,10687,12782,0,77,36,36,0.00,0.05,0.02,0.00
2014-06-02 01:00:00,2,3531,77,0.02,2,2,0,2,2332,6650,1217,2961,77,77,0,77,0.00,0.05,0.02,0.00
2014-06-02 01:10:00,2,6488,37,0.00,2,2,0,2,2900,11464,2813,6023,10,77,33,10,0.00,0.00,0.00,0.00
2014-06-02 01:20:00,2,9584,10,0.00,2,2,0,2,5257,14448,2960,8993,10,10,0,10,0.00,0.00,0.00,0.00
2014-06-02 01:30:00,2,6196,10,0.00,2,2,0,2,3533,8275,1673,6484,10,10,0,10,0.00,0.00,0.00,0.00
2014-06-02 01:40:00,2,21817,10,0.00,2,2,0,2,4057,50000,17213,15429,10,10,0,10,0.00,0.00,0.00,0.00
2014-06-02 01:50:00,2,27457,3,0.00,2,2,0,2,14051,48726,13597,19224,0,10,5,0,0.00,0.00,0.00,0.00
2014-06-02 02:00:00,2,49911,0,0.00,2,2,0,2,49329,50000,205,50000,0,0,0,0,0.00,0.00,0.00,0.00
2014-06-02 02:10:00,2,45490,0,0.00,2,2,0,2,35125,50000,4622,46326,0,0,0,0,0.00,0.00,0.00,0.00
2014-06-02 02:20:00,2,29927,0,0.00,2,2,0,2,6574,50000,15693,27786,0,0,0,0,0.00,0.00,0.00,0.00
2014-06-02 02:30:00,2,37504,0,0.00,2,2,0,2,9843,50000,13546,40453,0,0,0,0,0.00,0.00,0.00,0.00
2014-06-02 02:40:00,2,45624,0,0.00,2,2,0,2,24882,50000,7298,48000,0,0,0,0,0.00,0.00,0.00,0.00
2014-06-02 02:50:00,2,48285,0,0.00,2,2,0,2,42552,50000,2470,50000,0,0,0,0,0.00,0.00,0.00,0.00
2014-06-02 03:00:00,2,50000,0,0.00,2,2,0,2,50000,50000,0,50000,0,0,0,0,0.00,0.00,0.00,0.00
2014-06-02 03:10:00,2,46166,0,0.00,2,2,0,2,37226,50000,4457,47560,0,0,0,0,0.00,0.00,0.00,0.00
2014-06-02 03:20:00,2,44340,0,0.00,2,2,0,2,36353,50000,4161,43764,0,0,0,0,0.00,0.00,0.00,0.00
2014-06-02 03:30:00,2,17512,0,0.00,2,2,0,2,7944,42418,12660,10460,0,0,0,0,0.00,0.00,0.00,0.00
2014-06-02 03:40:00,2,48346,0,0.00,2,2,0,2,39196,50000,3303,50000,0,0,0,0,0.00,0.00,0.00,0.00
2014-06-02 03:50:00,2,25642,0,0.00,2,2,0,2,6528,50000,16461,25647,0,0,0,0,0.00,0.00,0.00,0.00
2014-06-02 04:00:00,2,34559,0,0.00,2,2,0,2,17905,45602,9601,36318,0,0,0,0,0.00,0.00,0.00,0.00
2014-06-02 04:10:00,2,35773,0,0.00,2,2,0,2,18495,50000,11928,34634,0,0,0,0,0.00,0.00,0.00,0.00
2014-06-02 04:20:00,2,40236,0,0.00,2,2,0,2,28014,49545,7192,41342,0,0,0,0,0.00,0.00,0.00,0.00
2014-06-02 04:30:00,2,47350,0,0.00,2,2,0,2,40432,50000,3656,49212,0,0,0,0,0.00,0.00,0.00,0.00
2014-06-02 04:40:00,2,39986,0,0.00,2,2,0,2,22102,50000,9114,40542,0,0,0,0,0.00,0.00,0.00,0.00
2014-06-02 04:50:00,2,49699,0,0.00,2,2,0,2,48475,50000,554,50000,0,0,0,0,0.00,0.00,0.00,0.00
2014-06-02 05:00:00,2,48696,0,0.00,2,2,0,2,41296,50000,2785,50000,0,0,0,0,0.00,0.00,0.00,0.00
2014-06-02 05:10:00,2,42297,0,0.00,2,2,0,2,33792,49911,5313,42446,0,0,0,0,0.00,0.00,0.00,0.00
2014-06-02 05:20:00,2,45516,0,0.00,2,2,0,2,32100,50000,5770,48452,0,0,0,0,0.00,0.00,0.00,0.00
2014-06-02 05:30:00,2,22062,0,0.00,2,2,0,2,8699,48420,14749,14384,0,0,0,0,0.00,0.00,0.00,0.00
2014-06-02 05:40:00,2,27732,0,0.00,2,2,0,2,8358,46468,12660,29470,0,0,0,0,0.00,0.00,0.00,0.00
2014-06-02 05:50:00,2,22355,0,0.00,2,2,0,2,12522,50000,10823,17893,0,0,0,0,0.00,0.00,0.00,0.00
2014-06-02 06:00:00,2,15714,0,0.00,2,2,0,2,7770,39901,9663,12078,0,0,0,0,0.00,0.00,0.00,0.00
2014-06-02 06:10:00,2,22161,0,0.00,2,2,0,2,12992,36168,6747,20634,0,0,0,0,0.00,0.00,0.00,0.00
2014-06-02 06:20:00,2,40677,0,0.00,2,2,0,2,23200,50000,8043,42773,0,0,0,0,0.00,0.00,0.00,0.00
2014-06-02 06:30:00,2,49760,0,0.00,2,2,0,2,47597,50000,721,50000,0,0,0,0,0.00,0.00,0.00,0.00
2014-06-02 06:40:00,2,47556,0,0.00,2,2,0,2,40784,50000,3007,48850,0,0,0,0,0.00,0.00,0.00,0.00
2014-06-02 06:50:00,2,43330,0,0.00,2,2,0,2,36728,47846,3251,43790,0,0,0,0,0.00,0.00,0.00,0.00
2014-06-02 07:00:00,2,36041,0,0.00,2,2,0,2,19716,50000,9331,36656,0,0,0,0,0.00,0.00,0.00,0.00
2014-06-02 07:10:00,2,34544,0,0.00,2,2,0,2,8765,50000,17488,43550,0,0,0,0,0.00,0.00,0.00,0.00
2014-06-02 07:20:00,2,39052,0,0.00,2,2,0,2,16761,50000,10776,41750,0,0,0,0,0.00,0.00,0.00,0.00
2014-06-02 07:30:00,2,44533,0,0.00,2,2,0,2,32940,50000,6387,48157,0,0,0,0,0.00,0.00,0.00,0.00
2014-06-02 07:40:00,2,45615,0,0.00,2,2,0,2,36532,50000,4778,47238,0,0,0,0,0.00,0.00,0.00,0.00
2014-06-02 07:50:00,2,49810,0,0.00,2,2,0,2,48764,50000,401,50000,0,0,0,0,0.00,0.00,0.00,0.00
2014-06-02 08:00:00,2,49183,0,0.00,2,2,0,2,44272,50000,1792,50000,0,0,0,0,0.00,0.00,0.00,0.00
2014-06-02 08:10:00,2,49933,0,0.00,2,2,0,2,49328,50000,202,50000,0,0,0,0,0.00,0.00,0.00,0.00
2014-06-02 08:20:00,2,49795,0,0.00,2,2,0,2,47952,50000,614,50000,0,0,0,0,0.00,0.00,0.00,0.00
2014-06-02 08:30:00,2,39422,0,0.00,2,2,0,2,15002,50000,12731,45690,0,0,0,0,0.00,0.00,0.00,0.00
2014-06-02 08:40:00,2,49244,0,0.00,2,2,0,2,46931,50000,1140,50000,0,0,0,0,0.00,0.00,0.00,0.00
2014-06-02 08:50:00,2,49512,0,0.00,2,2,0,2,46035,50000,1191,50000,0,0,0,0,0.00,0.00,0.00,0.00
2014-06-02 09:00:00,2,49720,0,0.00,2,2,0,2,47785,50000,664,50000,0,0,0,0,0.00,0.00,0.00,0.00
2014-06-02 09:10:00,2,45392,0,0.00,2,2,0,2,30635,50000,6940,50000,0,0,0,0,0.00,0.00,0.00,0.00
2014-06-02 09:20:00,2,19054,0,0.00,2,2,0,2,5085,38295,10603,17286,0,0,0,0,0.00,0.00,0.00,0.00
2014-06-02 09:30:00,2,46811,0,0.00,2,2,0,2,27890,50000,6640,50000,0,0,0,0,0.00,0.00,0.00,0.00
2014-06-02 09:40:00,2,30443,0,0.00,2,2,0,2,3133,50000,19677,37087,0,0,0,0,0.00,0.00,0.00,0.00
2014-06-02 09:50:00,2,2796,70,0.06,2,2,0,2,1963,3773,557,2777,40,77,15,77,0.00,0.10,0.03,0.05
2014-06-02 10:00:00,2,3609,77,0.15,2,2,0,2,1741,11743,3067,2056,77,77,0,77,0.00,0.45,0.14,0.12
2014-06-02 10:10:00,2,2754,77,0.15,2,2,0,2,1886,3630,629,2716,77,77,0,77,0.00,0.30,0.10,0.15
2014-06-02 10:20:00,2,6498,77,0.02,2,2,0,2,3789,12306,2401,6027,77,77,0,77,0.00,0.05,0.02,0.00
2014-06-02 10:30:00,2,14297,20,0.02,2,2,0,2,5043,20552,4185,13910,0,41,17,10,0.00,0.05,0.02,0.00
2014-06-02 10:40:00,2,8916,44,0.07,2,2,0,2,3248,32174,8594,5052,0,77,36,71,0.00,0.45,0.13,0.05
2014-06-02 10:50:00,2,6354,75,0.17,2,2,0,2,1614,10218,2624,7270,71,77,3,77,0.05,0.95,0.27,0.05
2014-06-02 11:00:00,2,12830,70,0.03,2,2,0,2,4855,32984,9468,8721,10,77,20,77,0.00,0.05,0.03,0.03
2014-06-02 11:10:00,2,7158,75,0.06,2,2,0,2,2367,13236,3639,7384,71,77,3,77,0.00,0.15,0.04,0.05
2014-06-02 11:20:00,2,23508,60,0.01,2,2,0,2,3716,47297,13595,22778,0,77,30,77,0.00,0.05,0.02,0.00
2014-06-02 11:30:00,2,9250,74,0.04,2,2,0,2,3914,24095,6128,6057,71,77,3,74,0.00,0.10,0.04,0.05
2014-06-02 11:40:00,2,13921,73,0.21,2,2,0,2,2955,35489,10166,11448,71,77,3,71,0.00,0.95,0.33,0.03
2014-06-02 11:50:00,2,9757,75,0.28,2,2,0,2,2513,36250,9562,8104,71,77,3,77,0.00,1.15,0.43,0.05
2014-06-02 12:00:00,2,2690,71,1.81,2,2,0,2,1548,5395,1360,2065,71,71,0,71,0.30,3.50,0.99,1.98
2014-06-02 12:10:00,2,7419,71,0.16,2,2,0,2,4067,14027,3071,6211,71,71,0,71,0.00,0.45,0.13,0.15
2014-06-02 12:20:00,2,12467,76,0.08,2,2,0,2,6776,20768,3648,12074,71,77,2,77,0.00,0.20,0.06,0.05
2014-06-02 12:30:00,2,14041,75,0.09,2,2,0,2,6063,28334,8016,9954,71,77,3,77,0.00,0.20,0.08,0.08
2014-06-02 12:40:00,2,3541,71,1.73,2,2,0,2,1696,8216,2070,2814,71,71,0,71,0.05,3.35,1.22,1.95
2014-06-02 12:50:00,2,12315,36,0.02,2,2,0,2,4327,27062,7597,9040,0,71,36,36,0.00,0.10,0.03,0.00
2014-06-02 13:00:00,2,2134,74,0.94,2,2,0,2,1399,4133,787,1917,71,77,3,74,0.15,1.75,0.61,0.80
2014-06-02 13:10:00,2,3129,71,0.59,2,2,0,2,2333,4082,644,3052,71,71,0,71,0.10,1.10,0.31,0.55
2014-06-02 13:20:00,2,2412,71,1.48,2,2,0,2,1596,5798,1198,1914,71,71,0,71,0.25,2.75,0.86,1.40
2014-06-02 13:30:00,2,16412,74,0.04,2,2,0,2,6913,37665,10844,10580,71,77,3,74,0.00,0.10,0.03,0.05
2014-06-02 13:40:00,2,5222,73,0.54,2,2,0,2,2144,10469,2618,4314,71,77,3,71,0.05,1.65,0.48,0.35
2014-06-02 13:50:00,2,6464,71,0.45,2,2,0,2,2637,12711,3489,5220,71,71,0,71,0.00,1.05,0.41,0.33
2014-06-02 14:00:00,2,3193,71,1.58,2,2,0,2,1668,5668,1307,3317,71,71,0,71,0.25,3.75,1.26,1.25
2014-06-02 14:10:00,2,3125,71,1.46,2,2,0,2,1741,4617,1039,3181,71,71,0,71,0.20,3.20,1.00,1.28
2014-06-02 14:20:00,2,1923,71,1.76,2,2,0,2,1561,2240,213,1928,71,71,0,71,1.10,2.70,0.54,1.73
2014-06-02 14:30:00,2,2452,71,1.90,2,2,0,2,1463,3085,583,2601,71,71,0,71,0.75,4.65,1.20,1.27
2014-06-02 14:40:00,2,3449,71,1.23,2,2,0,2,1497,5559,1221,3680,71,71,0,71,0.35,3.90,1.08,0.62
2014-06-02 14:50:00,2,3626,71,1.06,2,2,0,2,2059,6191,1175,3292,71,71,0,71,0.20,2.70,0.74,0.80
2014-06-02 15:00:00,2,7037,71,0.49,2,2,0,2,2194,11178,2525,6930,71,71,0,71,0.05,2.10,0.60,0.25
2014-06-02 15:10:00,2,12220,73,0.27,2,2,0,2,2981,19205,4647,11690,71,77,3,71,0.00,2.25,0.66,0.05
2014-06-02 15:20:00,2,2988,71,1.69,2,2,0,2,1865,6653,1293,2684,71,71,0,71,0.15,3.00,0.84,1.80
2014-06-02 15:30:00,2,8487,71,0.17,2,2,0,2,6796,10955,1119,8327,71,71,0,71,0.05,0.45,0.11,0.15
2014-06-02 15:40:00,2,5048,71,0.64,2,2,0,2,2813,9523,1904,4697,71,71,0,71,0.25,1.10,0.27,0.57
2014-06-02 15:50:00,2,6283,71,0.66,2,2,0,2,2225,9916,2368,7178,71,71,0,71,0.10,2.05,0.60,0.33
2014-06-02 16:00:00,2,3650,71,1.46,2,2,0,2,1656,8405,2157,2713,71,71,0,71,0.15,3.95,1.13,1.33
2014-06-02 16:10:00,2,24864,71,0.04,2,2,0,2,6956,47033,12788,28036,71,71,0,71,0.00,0.15,0.05,0.03
2014-06-02 16:20:00,2,7532,73,0.60,2,2,0,2,2585,26258,7961,3503,71,77,3,71,0.00,1.30,0.41,0.57
2014-06-02 16:30:00,2,5538,71,0.58,2,2,0,2,3351,12178,2529,4701,71,71,0,71,0.10,1.15,0.38,0.42
2014-06-02 16:40:00,2,5094,71,0.93,2,2,0,2,2781,9058,2007,4456,71,71,0,71,0.20,2.55,0.78,0.52
2014-06-02 16:50:00,2,4644,71,0.73,2,2,0,2,2949,6795,1449,4158,71,71,0,71,0.30,1.95,0.46,0.65
2014-06-02 17:00:00,2,8188,71,0.55,2,2,0,2,2316,22221,5994,7796,71,71,0,71,0.00,2.00,0.63,0.20
2014-06-02 17:10:00,2,12078,75,0.07,2,2,0,2,6370,22722,4379,10720,71,77,3,77,0.00,0.20,0.06,0.05
2014-06-02 17:20:00,2,12666,76,0.08,2,2,0,2,7640,25411,4998,11448,71,77,2,77,0.00,0.25,0.07,0.05
2014-06-02 17:30:00,2,9948,73,0.10,2,2,0,2,6007,17859,3663,8624,71,77,3,71,0.00,0.35,0.09,0.10
2014-06-02 17:40:00,2,12689,76,0.05,2,2,0,2,7929,20301,3894,12304,71,77,2,77,0.00,0.10,0.04,0.05
2014-06-02 17:50:00,2,9954,69,0.12,2,2,0,2,4342,23015,5497,7892,0,77,23,77,0.00,0.35,0.12,0.05
2014-06-02 18:00:00,2,7957,59,0.31,2,2,0,2,2655,14872,4523,6585,0,77,29,71,0.00,0.85,0.33,0.12
2014-06-02 18:10:00,2,19017,72,0.55,2,2,0,2,2072,35437,13781,23368,71,77,2,71,0.00,2.25,0.79,0.05
2014-06-02 18:20:00,2,24352,54,0.03,2,2,0,2,8354,46918,14612,17092,0,77,35,77,0.00,0.10,0.03,0.03
2014-06-02 18:30:00,2,21611,21,0.03,2,2,0,2,4348,40467,11910,18512,0,71,33,0,0.00,0.25,0.07,0.00
2014-06-02 18:40:00,2,4730,75,0.45,2,2,0,2,1928,8386,2041,4570,71,77,3,77,0.00,1.60,0.52,0.15
2014-06-02 18:50:00,2,3332,71,0.89,2,2,0,2,1710,7002,1846,2286,71,71,0,71,0.10,1.75,0.60,0.98
2014-06-02 19:00:00,2,3894,71,0.50,2,2,0,2,2729,5510,851,3828,71,71,0,71,0.15,1.10,0.26,0.45
2014-06-02 19:10:00,2,4507,73,0.27,2,2,0,2,3002,8190,1635,3970,71,77,3,71,0.10,0.55,0.15,0.25
2014-06-02 19:20:00,2,5307,71,0.26,2,2,0,2,3083,8201,1853,4534,71,71,0,71,0.05,0.55,0.16,0.28
2014-06-02 19:30:00,2,6798,76,0.08,2,2,0,2,4040,10390,2141,6498,71,77,2,77,0.00,0.15,0.06,0.10
2014-06-02 19:40:00,2,5965,77,0.15,2,2,0,2,2417,11051,2701,5590,77,77,0,77,0.00,0.50,0.15,0.10
2014-06-02 19:50:00,2,4589,76,0.14,2,2,0,2,2420,9186,2014,4570,71,77,2,77,0.05,0.40,0.11,0.10
2014-06-02 20:00:00,2,2542,74,0.41,2,2,0,2,1532,4059,821,2122,71,77,3,74,0.05,0.90,0.28,0.38
2014-06-02 20:10:00,2,5697,76,0.06,2,2,0,2,3573,7282,1171,5774,71,77,2,77,0.00,0.10,0.04,0.05
2014-06-02 20:20:00,2,4328,77,0.06,2,2,0,2,2553,9281,1848,3698,77,77,0,77,0.00,0.10,0.03,0.05
2014-06-02 20:30:00,2,7424,76,0.09,2,2,0,2,3323,10160,2010,8048,71,77,2,77,0.05,0.20,0.05,0.08
2014-06-02 20:40:00,2,6239,76,0.06,2,2,0,2,3650,8392,1273,6140,71,77,2,77,0.05,0.10,0.02,0.05
2014-06-02 20:50:00,2,9040,65,0.06,2,2,0,2,5085,19203,3947,7828,41,77,16,74,0.05,0.10,0.02,0.05
2014-06-02 21:00:00,2,17805,38,0.01,2,2,0,2,10767,29440,5530,16770,0,77,38,38,0.00,0.05,0.02,0.00
2014-06-02 21:10:00,2,5488,59,0.05,2,2,0,2,3214,9928,2030,4830,0,77,30,71,0.00,0.15,0.04,0.05
2014-06-02 21:20:00,2,6770,66,0.07,2,2,0,2,4567,8601,1303,6734,41,77,16,77,0.00,0.10,0.03,0.05
2014-06-02 21:30:00,2,4863,61,0.05,2,2,0,2,2967,8511,1810,4032,41,77,17,71,0.00,0.10,0.03,0.05
2014-06-02 21:40:00,2,5251,17,0.00,2,2,0,2,1556,8395,2081,4757,10,77,20,10,0.00,0.00,0.00,0.00
2014-06-02 21:50:00,2,5777,10,0.00,2,2,0,2,2380,11849,2602,5016,10,10,0,10,0.00,0.00,0.00,0.00
2014-06-02 22:00:00,2,12115,8,0.00,2,2,0,2,6536,16823,3542,12531,0,10,4,10,0.00,0.00,0.00,0.00
2014-06-02 22:10:00,2,6964,6,0.00,2,2,0,2,4724,10588,1572,6695,0,10,5,10,0.00,0.00,0.00,0.00
2014-06-02 22:20:00,2,30744,9,0.00,2,2,0,2,6821,50000,16167,34379,0,10,3,10,0.00,0.00,0.00,0.00
2014-06-02 22:30:00,2,21750,0,0.00,2,2,0,2,8488,44179,12176,17332,0,0,0,0,0.00,0.00,0.00,0.00
2014-06-02 22:40:00,2,26176,0,0.00,2,2,0,2,8822,42757,12556,27679,0,0,0,0,0.00,0.00,0.00,0.00
2014-06-02 22:50:00,2,27046,0,0.00,2,2,0,2,7823,41124,11726,32478,0,0,0,0,0.00,0.00,0.00,0.00
2014-06-02 23:00:00,2,13831,0,0.00,2,2,0,2,5687,27562,7839,10866,0,0,0,0,0.00,0.00,0.00,0.00
2014-06-02 23:10:00,2,23217,0,0.00,2,2,0,2,9315,36353,9758,22689,0,0,0,0,0.00,0.00,0.00,0.00
2014-06-02 23:20:00,2,24204,0,0.00,2,2,0,2,7074,40126,10507,23884,0,0,0,0,0.00,0.00,0.00,0.00
2014-06-02 23:30:00,2,19857,0,0.00,2,2,0,2,8047,45763,12658,15613,0,0,0,0,0.00,0.00,0.00,0.00
2014-06-02 23:40:00,2,20063,0,0.00,2,2,0,2,4566,47719,14356,12722,0,0,0,0,0.00,0.00,0.00,0.00
2014-06-02 23:50:00,2,41464,0,0.00,2,2,0,2,30362,50000,6710,43047,0,0,0,0,0.00,0.00,0.00,0.00
